Location: Buckland
(65.9785°N, 161.1281°W)
Time: 21:42:23
(UTC+00:00)

PRISM - Pass Details

Date: 17 January 2021
Orbit: 565 x 584 km, 98.2° (Epoch: 06 March)

Event Time Altitude Azimuth Distance (km) Brightness Sun altitude
Rises 16:04:32 0° 23° (NNE) 2,783 ? -23.8°
Reaches altitude 10° 16:06:58 10° 10° (N) 1,884 ? -23.6°
Enters shadow 16:08:11 16° 357° (N) 1,514 ? -23.5°
